• In Czech Republic
  • List of Countries
  • For 7 days
  • Water Temperature
  • Satellite Maps
  • Weather Map
  • Weather Widgets
  • user-avatar
    Login

    Hourly Weather Bolgatanga

    Today, 17 October, Wednesday

    Time Temperature Precipitation Wind Pressure Humidity
    00:00 +31°C° 0 mm 3 mps 742 mmHg 55%
    01:00 +30°C° 0 mm 3 mps 742 mmHg 59%
    02:00 +30°C° 0 mm 3 mps 742 mmHg 62%
    03:00 +29°C° 0 mm 3 mps 742 mmHg 66%
    04:00 +29°C° 0 mm 2 mps 742 mmHg 68%
    05:00 +28°C° 0 mm 2 mps 742 mmHg 71%
    06:00 +28°C° 0 mm 2 mps 742 mmHg 73%
    07:00 +29°C° 0 mm 2 mps 742 mmHg 67%
    08:00 +31°C° 0 mm 3 mps 743 mmHg 62%
    09:00 +33°C° 0 mm 3 mps 743 mmHg 56%
    10:00 +35°C° 0 mm 3 mps 742 mmHg 50%
    11:00 +37°C° 0 mm 3 mps 742 mmHg 44%
    12:00 +39°C° 0 mm 2 mps 742 mmHg 38%
    13:00 +39°C° 0 mm 2 mps 741 mmHg 35%
    14:00 +40°C° 0 mm 2 mps 740 mmHg 32%
    15:00 +40°C° 0 mm 2 mps 740 mmHg 29%
    16:00 +39°C° 0 mm 2 mps 740 mmHg 32%
    17:00 +37°C° 0 mm 2 mps 740 mmHg 35%
    18:00 +36°C° 0 mm 2 mps 740 mmHg 38%
    19:00 +34°C° 0 mm 1 mps 740 mmHg 40%
    20:00 +34°C° 0 mm 1 mps 741 mmHg 42%
    21:00 +33°C° 0 mm 1 mps 741 mmHg 45%
    22:00 +34°C° 0 mm 2 mps 741 mmHg 47%
    23:00 +32°C° 0 mm 2 mps 741 mmHg 49%

    Tomorrow, 18 October, Thursday

    Time Temperature Precipitation Wind Pressure Humidity
    00:00 +31°C° 0 mm 3 mps 741 mmHg 52%
    01:00 +31°C° 0 mm 3 mps 741 mmHg 56%
    02:00 +30°C° 0 mm 2 mps 740 mmHg 59%
    03:00 +29°C° 0 mm 2 mps 740 mmHg 63%
    04:00 +29°C° 0.1 mm 2 mps 740 mmHg 66%
    05:00 +28°C° 0.1 mm 2 mps 741 mmHg 69%
    06:00 +28°C° 0.1 mm 2 mps 741 mmHg 73%
    07:00 +29°C° 0 mm 3 mps 741 mmHg 68%
    08:00 +31°C° 0 mm 3 mps 742 mmHg 63%
    09:00 +34°C° 0 mm 4 mps 742 mmHg 58%
    10:00 +35°C° 0 mm 4 mps 741 mmHg 52%
    11:00 +37°C° 0 mm 3 mps 741 mmHg 46%
    12:00 +38°C° 0 mm 3 mps 740 mmHg 40%
    13:00 +39°C° 0 mm 2 mps 739 mmHg 37%
    14:00 +40°C° 0 mm 1 mps 738 mmHg 33%
    15:00 +38°C° 0 mm 0 mps 738 mmHg 29%
    16:00 +39°C° 0 mm 1 mps 738 mmHg 32%
    17:00 +37°C° 0 mm 1 mps 738 mmHg 34%
    18:00 +35°C° 0 mm 1 mps 738 mmHg 36%
    19:00 +36°C° 0 mm 2 mps 739 mmHg 39%
    20:00 +35°C° 0 mm 3 mps 739 mmHg 42%
    21:00 +35°C° 0 mm 3 mps 740 mmHg 44%
    22:00 +34°C° 0 mm 3 mps 740 mmHg 49%
    23:00 +33°C° 0 mm 4 mps 740 mmHg 55%

    Day after tomorrow, 19 October, Friday

    Time Temperature Precipitation Wind Pressure Humidity
    00:00 +32°C° 0 mm 4 mps 740 mmHg 60%
    01:00 +30°C° 1 mm 3 mps 740 mmHg 66%
    02:00 +29°C° 1 mm 3 mps 740 mmHg 72%
    03:00 +28°C° 1 mm 2 mps 739 mmHg 78%
    04:00 +28°C° 0 mm 2 mps 740 mmHg 79%
    05:00 +28°C° 0 mm 2 mps 740 mmHg 81%
    06:00 +28°C° 0 mm 2 mps 741 mmHg 82%
    07:00 +29°C° 0 mm 3 mps 741 mmHg 75%
    08:00 +31°C° 0 mm 3 mps 742 mmHg 68%
    09:00 +33°C° 0 mm 4 mps 742 mmHg 60%
    10:00 +35°C° 0 mm 4 mps 741 mmHg 54%
    11:00 +36°C° 0 mm 3 mps 741 mmHg 48%
    12:00 +38°C° 0 mm 3 mps 740 mmHg 42%
    13:00 +39°C° 0 mm 2 mps 739 mmHg 38%
    14:00 +40°C° 0 mm 1 mps 739 mmHg 35%
    15:00 +41°C° 0 mm 1 mps 738 mmHg 32%
    16:00 +39°C° 0 mm 1 mps 738 mmHg 34%
    17:00 +35°C° 0 mm 0 mps 738 mmHg 35%
    18:00 +34°C° 0 mm 0 mps 738 mmHg 37%
    19:00 +35°C° 0 mm 1 mps 739 mmHg 38%
    20:00 +35°C° 0 mm 1 mps 740 mmHg 40%
    21:00 +35°C° 0 mm 2 mps 740 mmHg 42%
    22:00 +34°C° 0.1 mm 2 mps 740 mmHg 46%
    23:00 +32°C° 0.1 mm 2 mps 740 mmHg 50%

    20 October, Saturday

    Time Temperature Precipitation Wind Pressure Humidity
    00:00 +31°C° 0.1 mm 2 mps 740 mmHg 55%
    01:00 +30°C° 0.6 mm 2 mps 740 mmHg 60%
    02:00 +29°C° 0.6 mm 1 mps 740 mmHg 66%
    03:00 +29°C° 0.6 mm 1 mps 739 mmHg 72%
    04:00 +28°C° 0 mm 1 mps 740 mmHg 73%
    05:00 +28°C° 0 mm 1 mps 740 mmHg 75%
    06:00 +28°C° 0 mm 2 mps 740 mmHg 77%
    07:00 +29°C° 0 mm 2 mps 741 mmHg 70%
    08:00 +31°C° 0 mm 3 mps 741 mmHg 64%
    09:00 +34°C° 0 mm 3 mps 742 mmHg 57%
    10:00 +36°C° 0 mm 2 mps 741 mmHg 51%
    11:00 +38°C° 0 mm 2 mps 740 mmHg 44%
    12:00 +40°C° 0 mm 1 mps 740 mmHg 38%
    13:00 +40°C° 0 mm 1 mps 739 mmHg 35%
    14:00 +41°C° 0 mm 1 mps 739 mmHg 32%
    15:00 +41°C° 0 mm 1 mps 738 mmHg 29%
    16:00 +40°C° 0 mm 1 mps 738 mmHg 32%
    17:00 +39°C° 0 mm 1 mps 738 mmHg 34%
    18:00 +36°C° 0 mm 1 mps 739 mmHg 37%
    19:00 +36°C° 0 mm 1 mps 739 mmHg 39%
    20:00 +35°C° 0 mm 1 mps 740 mmHg 41%
    21:00 +34°C° 0 mm 1 mps 740 mmHg 43%
    22:00 +33°C° 0 mm 1 mps 740 mmHg 45%
    23:00 +33°C° 0 mm 1 mps 739 mmHg 47%

    21 October, Sunday

    Time Temperature Precipitation Wind Pressure Humidity
    00:00 +32°C° 0 mm 1 mps 739 mmHg 49%
    01:00 +32°C° 0 mm 1 mps 739 mmHg 52%
    02:00 +31°C° 0 mm 1 mps 739 mmHg 54%
    03:00 +31°C° 0 mm 2 mps 739 mmHg 56%
    04:00 +30°C° 0 mm 2 mps 739 mmHg 58%
    05:00 +30°C° 0 mm 2 mps 739 mmHg 61%
    06:00 +29°C° 0 mm 2 mps 740 mmHg 63%
    07:00 +31°C° 0 mm 3 mps 740 mmHg 60%
    08:00 +33°C° 0 mm 3 mps 741 mmHg 57%
    09:00 +35°C° 0 mm 4 mps 741 mmHg 54%
    10:00 +37°C° 0 mm 3 mps 740 mmHg 48%
    11:00 +38°C° 0 mm 2 mps 740 mmHg 43%
    12:00 +40°C° 0 mm 2 mps 739 mmHg 38%
    13:00 +40°C° 0 mm 2 mps 739 mmHg 35%
    14:00 +42°C° 0 mm 3 mps 738 mmHg 31%
    15:00 +42°C° 0 mm 3 mps 737 mmHg 27%
    16:00 +39°C° 0 mm 3 mps 737 mmHg 31%
    17:00 +38°C° 0 mm 2 mps 738 mmHg 35%
    18:00 +35°C° 0 mm 1 mps 738 mmHg 38%
    19:00 +35°C° 0 mm 2 mps 738 mmHg 40%
    20:00 +35°C° 0 mm 2 mps 739 mmHg 42%
    21:00 +34°C° 0 mm 2 mps 739 mmHg 44%
    22:00 +32°C° 0 mm 2 mps 739 mmHg 45%
    23:00 +32°C° 0 mm 2 mps 739 mmHg 47%

    22 October, Monday

    Time Temperature Precipitation Wind Pressure Humidity
    00:00 +31°C° 0 mm 2 mps 739 mmHg 49%
    01:00 +31°C° 0 mm 1 mps 739 mmHg 52%
    02:00 +30°C° 0 mm 1 mps 739 mmHg 56%
    03:00 +29°C° 0 mm 1 mps 739 mmHg 59%
    04:00 +29°C° 0 mm 2 mps 739 mmHg 63%
    05:00 +29°C° 0 mm 2 mps 739 mmHg 66%
    06:00 +28°C° 0 mm 2 mps 740 mmHg 70%
    07:00 +30°C° 0 mm 2 mps 740 mmHg 65%
    08:00 +33°C° 0 mm 3 mps 740 mmHg 60%
    09:00 +35°C° 0 mm 3 mps 740 mmHg 55%
    10:00 +37°C° 0 mm 3 mps 740 mmHg 47%
    11:00 +39°C° 0 mm 2 mps 739 mmHg 40%
    12:00 +41°C° 0 mm 1 mps 738 mmHg 33%
    13:00 +41°C° 0 mm 2 mps 738 mmHg 29%
    14:00 +41°C° 0 mm 2 mps 737 mmHg 26%
    15:00 +43°C° 0 mm 3 mps 737 mmHg 22%
    16:00 +40°C° 0 mm 2 mps 737 mmHg 25%
    17:00 +38°C° 0 mm 2 mps 737 mmHg 28%
    18:00 +36°C° 0 mm 1 mps 737 mmHg 31%
    19:00 +35°C° 0 mm 1 mps 738 mmHg 33%
    20:00 +34°C° 0 mm 1 mps 738 mmHg 35%
    21:00 +33°C° 0 mm 1 mps 739 mmHg 37%
    22:00 +34°C° 0 mm 2 mps 739 mmHg 40%
    23:00 +32°C° 0 mm 2 mps 738 mmHg 42%
    Show more